Home   Weather   Tiruchirappalli   Past weeks

Flag for India Past Weather in Tiruchirappalli, Tamil Nadu, India — Yesterday and Last 2 Weeks

Now
77 °F

Fog.


Feels Like: 79 °F
Forecast: 71 / 90 °F
Wind: 3 mph from North

Location: Tiruchchirapalli

Current Time: Dec 8, 2016 at 7:52:39 am

Latest Report: Dec 8, 2016 at 7:30 am


Visibility: 2 mi

Pressure: 29.92 "Hg

Humidity: 79%

Dew Point: 70 °F

Location of TiruchirappalliLocation

Past Weather in Tiruchirappalli — Graph

°F

Tiruchirappalli Temperature Yesterday

Maximum temperature yesterday: 88 °F (at 1:30 pm)
Minimum temperature yesterday: 70 °F (at 5:30 am)
Average temperature yesterday: 79 °F

High & Low Weather Summary for the Past Weeks

 TemperatureHumidityPressure
High95 °F (Nov 27, 3:30 pm)100% (Dec 2, 5:30 pm)30.01 "Hg (Dec 2, 5:30 pm)
Low64 °F (Dec 1, 2:30 pm)28% (Nov 27, 3:30 pm)29.74 "Hg (Nov 23, 2:30 pm)
Average78 °F72%29.87 "Hg
* Reported Nov 23 6:30 am — Dec 8 6:30 am, Tiruchirappalli, Weather by CustomWeather, © 2016

Note: Actual official high and low records may vary slightly from our data, if they occured in-between our weather recording intervals... More about our weather records

Advertising

Tiruchirappalli Weather History for the Previous 24 Hours

Scroll right to see more
 ConditionsComfort  
Time TempWeatherWind HumidityBarometerVisibility
6:30 am
Thu, Dec 8
75 °FFog.5 mph83%29.89 "Hg1 mi
6:00 am75 °FFog.6 mph83%29.86 "Hg1 mi
5:30 am75 °FFog.6 mph83%29.86 "Hg2 mi
5:00 am73 °FFog.6 mph89%29.86 "Hg2 mi
4:30 am73 °FFog.6 mph89%29.86 "Hg2 mi
4:00 am73 °FFog.No wind89%29.86 "Hg2 mi
3:30 am73 °FFog.No wind89%29.86 "Hg2 mi
3:00 am75 °FFog.No wind83%29.86 "Hg2 mi
2:30 am75 °FFog.No wind83%29.86 "Hg2 mi
2:00 am75 °FFog.No wind78%29.86 "Hg2 mi
1:30 am75 °FFog.No wind78%29.86 "Hg2 mi
1:00 am75 °FFog.No wind78%29.89 "Hg2 mi
12:30 am75 °FFog.No wind78%29.89 "Hg2 mi
12:00 am75 °FFog.No wind78%29.89 "Hg2 mi
11:30 pm
Wed, Dec 7
75 °FFog.No wind78%29.89 "Hg3 mi
11:00 pm77 °FHaze.No wind74%29.89 "Hg3 mi
10:30 pm77 °FHaze.No wind74%29.89 "Hg3 mi
10:00 pm77 °FHaze.No wind74%29.92 "Hg3 mi
9:30 pm77 °FHaze.No wind74%29.92 "Hg3 mi
9:00 pm79 °FPassing clouds.2 mph70%29.89 "Hg3 mi
8:30 pm79 °FPassing clouds.5 mph70%29.89 "Hg3 mi
8:00 pm79 °FPassing clouds.6 mph70%29.89 "Hg3 mi
7:30 pm79 °FPassing clouds.9 mph70%29.89 "Hg3 mi
7:00 pm81 °FPassing clouds.7 mph66%29.86 "Hg3 mi
6:30 pm81 °FPassing clouds.7 mph66%29.86 "Hg3 mi
6:00 pm82 °FScattered clouds.7 mph62%29.83 "Hg3 mi
5:30 pm84 °FScattered clouds.7 mph62%29.83 "Hg4 mi
5:00 pm86 °FScattered clouds.12 mph59%29.83 "Hg4 mi
4:30 pm88 °FScattered clouds.12 mph52%29.83 "Hg4 mi
4:00 pm88 °FScattered clouds.10 mph52%29.83 "Hg4 mi
3:30 pm88 °FScattered clouds.13 mph52%29.83 "Hg4 mi
3:00 pm88 °FScattered clouds.13 mph52%29.83 "Hg4 mi
2:30 pm88 °FScattered clouds.10 mph49%29.83 "Hg4 mi
2:00 pm88 °FScattered clouds.12 mph49%29.83 "Hg3 mi
1:30 pm88 °FScattered clouds.10 mph49%29.86 "Hg3 mi
1:00 pm86 °FScattered clouds.9 mph52%29.86 "Hg3 mi
12:30 pm86 °FScattered clouds.9 mph52%29.89 "Hg3 mi
12:00 pm86 °FScattered clouds.9 mph52%29.89 "Hg3 mi
11:30 am84 °FHaze.7 mph55%29.92 "Hg2 mi
11:00 am82 °FHaze.5 mph58%29.92 "Hg2 mi
10:00 am81 °FHaze.9 mph58%29.95 "Hg2 mi
9:30 am79 °FHaze.6 mph65%29.95 "Hg2 mi
9:00 am77 °FHaze.3 mph69%29.95 "Hg2 mi
8:30 am75 °FFog.2 mph74%29.95 "Hg1 mi
8:00 am73 °FFog.3 mph78%29.95 "Hg1 mi
7:30 am72 °FFog.3 mph83%29.92 "Hg1 mi
Weather by CustomWeather, © 2016

See weather overviewHow to use our weather pages